Time,TemperatureF,DewpointF,PressureIn,WindDirection,WindDirectionDegrees,WindSpeedMPH,WindSpeedGustMPH,Humidity,HourlyPrecipIn,Conditions,Clouds,dailyrainin,SoftwareType,DateUTC
2013-09-21 00:02:00,57.7,18.1,24.02,South,180,19.0,25.0,21,0.00,,,0.00,meteohub,2013-09-21 06:02:00,
2013-09-21 00:07:00,57.7,18.1,24.02,South,180,19.0,25.0,21,0.00,,,0.00,meteohub,2013-09-21 06:07:00,
2013-09-21 00:12:00,57.0,19.6,24.02,South,180,18.0,23.0,23,0.00,,,0.00,meteohub,2013-09-21 06:12:00,
2013-09-21 00:17:00,57.2,19.8,24.02,South,180,18.0,23.0,23,0.00,,,0.00,meteohub,2013-09-21 06:17:00,
2013-09-21 00:22:00,56.1,21.7,24.02,South,180,21.0,24.0,26,0.00,,,0.00,meteohub,2013-09-21 06:22:00,
2013-09-21 00:27:00,55.6,21.2,24.02,South,180,18.0,24.0,26,0.00,,,0.00,meteohub,2013-09-21 06:27:00,
2013-09-21 00:32:00,55.6,21.2,24.02,South,180,22.0,22.0,26,0.00,,,0.00,meteohub,2013-09-21 06:32:00,
2013-09-21 00:37:00,55.6,22.1,24.01,South,180,22.0,22.0,27,0.00,,,0.00,meteohub,2013-09-21 06:37:00,
2013-09-21 00:42:00,54.5,22.8,24.02,South,180,21.0,23.0,29,0.00,,,0.00,meteohub,2013-09-21 06:42:00,
2013-09-21 00:47:00,54.1,23.4,24.02,South,180,21.0,23.0,30,0.00,,,0.00,meteohub,2013-09-21 06:47:00,
2013-09-21 00:52:00,54.1,24.1,24.02,South,180,17.0,23.0,31,0.00,,,0.00,meteohub,2013-09-21 06:52:00,
2013-09-21 00:57:00,53.6,24.4,24.03,South,180,15.0,23.0,32,0.00,,,0.00,meteohub,2013-09-21 06:57:00,
2013-09-21 01:02:00,54.1,24.1,24.03,South,180,21.0,21.0,31,0.00,,,0.00,meteohub,2013-09-21 07:02:00,
2013-09-21 01:07:00,54.1,24.1,24.02,South,180,21.0,21.0,31,0.00,,,0.00,meteohub,2013-09-21 07:07:00,
2013-09-21 01:12:00,56.3,20.8,24.02,SSE,158,24.0,24.0,25,0.00,,,0.00,meteohub,2013-09-21 07:12:00,
2013-09-21 01:17:00,56.1,21.7,24.02,South,180,19.0,24.0,26,0.00,,,0.00,meteohub,2013-09-21 07:17:00,
2013-09-21 01:22:00,56.5,21.0,24.02,South,180,22.0,27.0,25,0.00,,,0.00,meteohub,2013-09-21 07:22:00,
2013-09-21 01:27:00,56.5,21.9,24.02,South,180,19.0,27.0,26,0.00,,,0.00,meteohub,2013-09-21 07:27:00,
2013-09-21 01:37:00,55.6,22.1,24.01,South,180,21.0,26.0,27,0.00,,,0.00,meteohub,2013-09-21 07:37:00,
2013-09-21 01:42:00,55.0,23.4,24.02,South,180,20.0,24.0,29,0.00,,,0.00,meteohub,2013-09-21 07:42:00,
2013-09-21 01:47:00,54.9,23.2,24.02,South,180,19.0,24.0,29,0.00,,,0.00,meteohub,2013-09-21 07:47:00,
2013-09-21 01:52:00,54.3,23.5,24.01,South,180,19.0,24.0,30,0.00,,,0.00,meteohub,2013-09-21 07:52:00,
2013-09-21 01:57:00,54.3,23.5,24.01,South,180,20.0,21.0,30,0.00,,,0.00,meteohub,2013-09-21 07:57:00,
2013-09-21 02:02:00,54.5,22.8,24.02,South,180,19.0,23.0,29,0.00,,,0.00,meteohub,2013-09-21 08:02:00,
2013-09-21 02:07:00,54.5,22.8,24.01,South,180,19.0,23.0,29,0.00,,,0.00,meteohub,2013-09-21 08:07:00,
2013-09-21 02:12:00,54.1,22.6,24.01,South,180,20.0,23.0,29,0.00,,,0.00,meteohub,2013-09-21 08:12:00,
2013-09-21 02:17:00,54.5,22.8,24.01,South,180,23.0,23.0,29,0.00,,,0.00,meteohub,2013-09-21 08:17:00,
2013-09-21 02:22:00,55.0,21.7,24.01,South,180,27.0,27.0,27,0.00,,,0.00,meteohub,2013-09-21 08:22:00,
2013-09-21 02:27:00,55.2,21.7,24.01,South,180,24.0,27.0,27,0.00,,,0.00,meteohub,2013-09-21 08:27:00,
2013-09-21 02:32:00,55.0,21.7,24.01,South,180,22.0,27.0,27,0.00,,,0.00,meteohub,2013-09-21 08:32:00,
2013-09-21 02:37:00,55.4,21.0,24.01,South,180,27.0,27.0,26,0.00,,,0.00,meteohub,2013-09-21 08:37:00,
2013-09-21 02:42:00,55.2,20.8,24.01,South,180,28.0,28.0,26,0.00,,,0.00,meteohub,2013-09-21 08:42:00,
2013-09-21 02:47:00,55.2,21.7,24.01,South,180,21.0,28.0,27,0.00,,,0.00,meteohub,2013-09-21 08:47:00,
2013-09-21 02:52:00,55.0,20.8,24.01,South,180,25.0,28.0,26,0.00,,,0.00,meteohub,2013-09-21 08:52:00,
2013-09-21 02:57:00,54.7,22.3,24.01,South,180,23.0,28.0,28,0.00,,,0.00,meteohub,2013-09-21 08:57:00,
2013-09-21 03:02:00,54.5,22.1,24.01,SSE,158,20.0,27.0,28,0.00,,,0.00,meteohub,2013-09-21 09:02:00,
2013-09-21 03:07:00,54.5,22.1,24.01,SSE,158,20.0,27.0,28,0.00,,,0.00,meteohub,2013-09-21 09:07:00,
2013-09-21 03:12:00,54.9,20.7,24.01,South,180,23.0,26.0,26,0.00,,,0.00,meteohub,2013-09-21 09:12:00,
2013-09-21 03:17:00,54.5,21.2,24.01,South,180,23.0,25.0,27,0.00,,,0.00,meteohub,2013-09-21 09:17:00,
2013-09-21 03:22:00,54.7,21.4,24.01,South,180,24.0,26.0,27,0.00,,,0.00,meteohub,2013-09-21 09:22:00,
2013-09-21 03:27:00,55.0,19.8,24.01,South,180,22.0,26.0,25,0.00,,,0.00,meteohub,2013-09-21 09:27:00,
2013-09-21 03:32:00,54.7,20.5,24.01,South,180,27.0,27.0,26,0.00,,,0.00,meteohub,2013-09-21 09:32:00,
2013-09-21 03:37:00,54.3,20.1,24.01,South,180,19.0,27.0,26,0.00,,,0.00,meteohub,2013-09-21 09:37:00,
2013-09-21 03:42:00,54.5,20.3,24.01,South,180,18.0,27.0,26,0.00,,,0.00,meteohub,2013-09-21 09:42:00,
2013-09-21 03:47:00,55.0,18.0,24.01,SSE,158,22.0,27.0,23,0.00,,,0.00,meteohub,2013-09-21 09:47:00,
2013-09-21 03:52:00,55.4,19.2,24.01,South,180,17.0,22.0,24,0.00,,,0.00,meteohub,2013-09-21 09:52:00,
2013-09-21 03:57:00,54.7,19.6,24.01,South,180,17.0,22.0,25,0.00,,,0.00,meteohub,2013-09-21 09:57:00,
2013-09-21 04:02:00,54.5,19.4,24.01,South,180,20.0,22.0,25,0.00,,,0.00,meteohub,2013-09-21 10:02:00,
2013-09-21 04:07:00,54.5,19.4,24.01,South,180,20.0,22.0,25,0.00,,,0.00,meteohub,2013-09-21 10:07:00,
2013-09-21 04:12:00,54.5,18.5,24.01,SE,135,18.0,20.0,24,0.00,,,0.00,meteohub,2013-09-21 10:12:00,
2013-09-21 04:17:00,54.5,19.4,24.01,South,180,21.0,21.0,25,0.00,,,0.00,meteohub,2013-09-21 10:17:00,
2013-09-21 04:22:00,54.7,18.5,24.00,South,180,21.0,22.0,24,0.00,,,0.00,meteohub,2013-09-21 10:22:00,
2013-09-21 04:27:00,54.1,19.0,24.01,South,180,21.0,22.0,25,0.00,,,0.00,meteohub,2013-09-21 10:27:00,
2013-09-21 04:32:00,54.1,19.0,24.00,South,180,20.0,22.0,25,0.00,,,0.00,meteohub,2013-09-21 10:32:00,
2013-09-21 04:37:00,54.0,19.8,24.01,SSE,158,18.0,26.0,26,0.00,,,0.00,meteohub,2013-09-21 10:37:00,
2013-09-21 04:42:00,54.0,18.9,24.01,South,180,23.0,26.0,25,0.00,,,0.00,meteohub,2013-09-21 10:42:00,
2013-09-21 04:47:00,54.3,19.2,24.00,SE,135,17.0,23.0,25,0.00,,,0.00,meteohub,2013-09-21 10:47:00,
2013-09-21 04:52:00,54.5,18.5,24.00,SSE,158,24.0,24.0,24,0.00,,,0.00,meteohub,2013-09-21 10:52:00,
2013-09-21 04:57:00,54.1,19.0,24.00,South,180,22.0,24.0,25,0.00,,,0.00,meteohub,2013-09-21 10:57:00,
2013-09-21 05:02:00,53.6,19.6,24.00,South,180,20.0,24.0,26,0.00,,,0.00,meteohub,2013-09-21 11:02:00,
2013-09-21 05:07:00,53.6,19.6,24.00,South,180,20.0,24.0,26,0.00,,,0.00,meteohub,2013-09-21 11:07:00,
2013-09-21 05:12:00,52.7,19.6,24.00,South,180,19.0,23.0,27,0.00,,,0.00,meteohub,2013-09-21 11:12:00,
2013-09-21 05:17:00,53.1,18.1,24.00,South,180,21.0,21.0,25,0.00,,,0.00,meteohub,2013-09-21 11:17:00,
2013-09-21 05:22:00,53.4,19.4,24.00,South,180,19.0,21.0,26,0.00,,,0.00,meteohub,2013-09-21 11:22:00,
2013-09-21 05:27:00,53.4,18.5,24.00,South,180,21.0,21.0,25,0.00,,,0.00,meteohub,2013-09-21 11:27:00,
2013-09-21 05:32:00,53.8,18.9,24.00,South,180,21.0,23.0,25,0.00,,,0.00,meteohub,2013-09-21 11:32:00,
2013-09-21 05:37:00,53.6,17.6,23.99,South,180,24.0,25.0,24,0.00,,,0.00,meteohub,2013-09-21 11:37:00,
2013-09-21 05:42:00,53.6,18.7,23.99,South,180,24.0,25.0,25,0.00,,,0.00,meteohub,2013-09-21 11:42:00,
2013-09-21 05:47:00,54.3,17.2,23.99,South,180,25.0,28.0,23,0.00,,,0.00,meteohub,2013-09-21 11:47:00,
2013-09-21 05:52:00,54.3,17.2,23.99,South,180,24.0,28.0,23,0.00,,,0.00,meteohub,2013-09-21 11:52:00,
2013-09-21 05:57:00,54.1,18.1,23.99,South,180,23.0,28.0,24,0.00,,,0.00,meteohub,2013-09-21 11:57:00,
2013-09-21 06:02:00,53.6,18.7,23.99,South,180,23.0,27.0,25,0.00,,,0.00,meteohub,2013-09-21 12:02:00,
2013-09-21 06:07:00,53.6,18.7,23.99,South,180,23.0,27.0,25,0.00,,,0.00,meteohub,2013-09-21 12:07:00,
2013-09-21 06:12:00,54.0,17.1,23.99,South,180,21.0,26.0,23,0.00,,,0.00,meteohub,2013-09-21 12:12:00,
2013-09-21 06:17:00,54.5,16.3,23.99,South,180,22.0,27.0,22,0.00,,,0.00,meteohub,2013-09-21 12:17:00,
2013-09-21 06:22:00,54.7,16.5,23.99,South,180,23.0,27.0,22,0.00,,,0.00,meteohub,2013-09-21 12:22:00,
2013-09-21 06:27:00,54.3,17.2,23.99,South,180,18.0,27.0,23,0.00,,,0.00,meteohub,2013-09-21 12:27:00,
2013-09-21 06:32:00,53.6,17.6,23.99,South,180,21.0,24.0,24,0.00,,,0.00,meteohub,2013-09-21 12:32:00,
2013-09-21 06:37:00,54.7,17.6,23.99,South,180,19.0,24.0,23,0.00,,,0.00,meteohub,2013-09-21 12:37:00,
2013-09-21 06:42:00,53.6,17.6,23.99,South,180,18.0,25.0,24,0.00,,,0.00,meteohub,2013-09-21 12:42:00,
2013-09-21 06:47:00,54.1,17.1,23.99,South,180,21.0,25.0,23,0.00,,,0.00,meteohub,2013-09-21 12:47:00,
2013-09-21 06:52:00,54.7,16.5,23.99,South,180,20.0,23.0,22,0.00,,,0.00,meteohub,2013-09-21 12:52:00,
2013-09-21 06:57:00,53.6,18.7,23.99,South,180,17.0,23.0,25,0.00,,,0.00,meteohub,2013-09-21 12:57:00,
2013-09-21 07:02:00,52.7,19.6,23.99,South,180,21.0,22.0,27,0.00,,,0.00,meteohub,2013-09-21 13:02:00,
2013-09-21 07:07:00,52.7,19.6,23.99,South,180,21.0,21.0,27,0.00,,,0.00,meteohub,2013-09-21 13:07:00,
2013-09-21 07:12:00,53.1,18.1,23.98,South,180,26.0,26.0,25,0.00,,,0.00,meteohub,2013-09-21 13:12:00,
2013-09-21 07:17:00,52.9,18.9,23.98,South,180,24.0,26.0,26,0.00,,,0.00,meteohub,2013-09-21 13:17:00,
2013-09-21 07:22:00,53.4,19.4,23.98,South,180,23.0,26.0,26,0.00,,,0.00,meteohub,2013-09-21 13:22:00,
2013-09-21 07:27:00,53.6,19.6,23.98,South,180,24.0,27.0,26,0.00,,,0.00,meteohub,2013-09-21 13:27:00,
2013-09-21 07:32:00,53.8,19.8,23.98,South,180,23.0,27.0,26,0.00,,,0.00,meteohub,2013-09-21 13:32:00,
2013-09-21 07:37:00,53.8,19.8,23.99,South,180,23.0,26.0,26,0.00,,,0.00,meteohub,2013-09-21 13:37:00,
2013-09-21 07:42:00,54.1,19.9,23.98,South,180,23.0,26.0,26,0.00,,,0.00,meteohub,2013-09-21 13:42:00,
2013-09-21 07:47:00,56.1,18.9,23.98,South,180,28.0,35.0,23,0.00,,,0.00,meteohub,2013-09-21 13:47:00,
2013-09-21 07:52:00,56.5,17.1,23.97,South,180,35.0,35.0,21,0.00,,,0.00,meteohub,2013-09-21 13:52:00,
2013-09-21 07:57:00,56.5,19.0,23.97,South,180,33.0,37.0,23,0.00,,,0.00,meteohub,2013-09-21 13:57:00,
2013-09-21 08:02:00,56.5,19.0,23.97,South,180,28.0,37.0,23,0.00,,,0.00,meteohub,2013-09-21 14:02:00,
2013-09-21 08:07:00,56.5,19.0,23.98,South,180,28.0,37.0,23,0.00,,,0.00,meteohub,2013-09-21 14:07:00,
2013-09-21 08:12:00,56.7,20.3,23.97,South,180,23.0,33.0,24,0.00,,,0.00,meteohub,2013-09-21 14:12:00,
2013-09-21 08:17:00,56.7,18.3,23.97,South,180,27.0,28.0,22,0.00,,,0.00,meteohub,2013-09-21 14:17:00,
2013-09-21 08:22:00,57.2,18.7,23.97,South,180,26.0,28.0,22,0.00,,,0.00,meteohub,2013-09-21 14:22:00,
2013-09-21 08:27:00,57.4,17.8,23.97,South,180,26.0,27.0,21,0.00,,,0.00,meteohub,2013-09-21 14:27:00,
2013-09-21 08:32:00,57.0,19.6,23.98,South,180,21.0,27.0,23,0.00,,,0.00,meteohub,2013-09-21 14:32:00,
2013-09-21 08:37:00,57.2,19.8,23.97,South,180,27.0,27.0,23,0.00,,,0.00,meteohub,2013-09-21 14:37:00,
2013-09-21 08:42:00,57.6,19.9,23.97,South,180,25.0,28.0,23,0.00,,,0.00,meteohub,2013-09-21 14:42:00,
2013-09-21 08:47:00,58.3,18.5,23.97,South,180,21.0,29.0,21,0.00,,,0.00,meteohub,2013-09-21 14:47:00,
2013-09-21 08:52:00,58.6,18.9,23.97,South,180,26.0,29.0,21,0.00,,,0.00,meteohub,2013-09-21 14:52:00,
2013-09-21 08:57:00,59.2,19.2,23.97,South,180,23.0,29.0,21,0.00,,,0.00,meteohub,2013-09-21 14:57:00,
2013-09-21 09:02:00,58.8,19.0,23.97,South,180,27.0,28.0,21,0.00,,,0.00,meteohub,2013-09-21 15:02:00,
2013-09-21 09:07:00,58.8,19.0,23.96,South,180,27.0,28.0,21,0.00,,,0.00,meteohub,2013-09-21 15:07:00,
2013-09-21 09:12:00,59.2,18.1,23.96,SSE,158,33.0,35.0,20,0.00,,,0.00,meteohub,2013-09-21 15:12:00,
2013-09-21 09:17:00,59.7,16.2,23.95,SE,135,37.0,37.0,18,0.00,,,0.00,meteohub,2013-09-21 15:17:00,
2013-09-21 09:22:00,60.6,16.9,23.95,South,180,36.0,39.0,18,0.00,,,0.00,meteohub,2013-09-21 15:22:00,
2013-09-21 09:27:00,61.2,17.2,23.96,South,180,30.0,42.0,18,0.00,,,0.00,meteohub,2013-09-21 15:27:00,
2013-09-21 09:32:00,60.8,17.1,23.96,South,180,35.0,42.0,18,0.00,,,0.00,meteohub,2013-09-21 15:32:00,
2013-09-21 09:37:00,61.2,16.0,23.95,South,180,36.0,40.0,17,0.00,,,0.00,meteohub,2013-09-21 15:37:00,
2013-09-21 09:42:00,61.3,17.4,23.96,South,180,36.0,40.0,18,0.00,,,0.00,meteohub,2013-09-21 15:42:00,
2013-09-21 09:47:00,61.7,17.8,23.96,SSE,158,36.0,40.0,18,0.00,,,0.00,meteohub,2013-09-21 15:47:00,
2013-09-21 09:52:00,62.2,16.9,23.96,SE,135,35.0,40.0,17,0.00,,,0.00,meteohub,2013-09-21 15:52:00,
2013-09-21 09:57:00,61.2,18.5,23.96,SSE,158,31.0,40.0,19,0.00,,,0.00,meteohub,2013-09-21 15:57:00,
2013-09-21 10:02:00,60.6,19.4,23.96,SSE,158,25.0,40.0,20,0.00,,,0.00,meteohub,2013-09-21 16:02:00,
2013-09-21 10:07:00,60.6,19.4,23.96,SSE,158,25.0,40.0,20,0.00,,,0.00,meteohub,2013-09-21 16:07:00,
2013-09-21 10:12:00,61.2,18.5,23.96,South,180,29.0,35.0,19,0.00,,,0.00,meteohub,2013-09-21 16:12:00,
2013-09-21 10:17:00,62.6,19.8,23.96,SE,135,30.0,30.0,19,0.00,,,0.00,meteohub,2013-09-21 16:17:00,
2013-09-21 10:22:00,62.2,18.1,23.96,SE,135,30.0,32.0,18,0.00,,,0.00,meteohub,2013-09-21 16:22:00,
2013-09-21 10:27:00,63.3,20.3,23.96,South,180,24.0,34.0,19,0.00,,,0.00,meteohub,2013-09-21 16:27:00,
2013-09-21 10:32:00,64.4,18.7,23.96,SE,135,26.0,34.0,17,0.00,,,0.00,meteohub,2013-09-21 16:32:00,
2013-09-21 10:37:00,64.6,18.9,23.96,SE,135,22.0,34.0,17,0.00,,,0.00,meteohub,2013-09-21 16:37:00,
2013-09-21 10:42:00,64.6,20.1,23.96,SSE,158,27.0,28.0,18,0.00,,,0.00,meteohub,2013-09-21 16:42:00,
2013-09-21 10:47:00,65.3,20.7,23.96,South,180,21.0,29.0,18,0.00,,,0.00,meteohub,2013-09-21 16:47:00,
2013-09-21 10:52:00,66.0,18.5,23.96,South,180,28.0,29.0,16,0.00,,,0.00,meteohub,2013-09-21 16:52:00,
2013-09-21 10:57:00,66.6,19.0,23.95,South,180,31.0,33.0,16,0.00,,,0.00,meteohub,2013-09-21 16:57:00,
2013-09-21 11:02:00,66.2,20.1,23.96,SE,135,33.0,34.0,17,0.00,,,0.00,meteohub,2013-09-21 17:02:00,
2013-09-21 11:07:00,66.2,20.1,23.96,SE,135,33.0,34.0,17,0.00,,,0.00,meteohub,2013-09-21 17:07:00,
2013-09-21 11:12:00,67.1,20.8,23.96,SE,135,32.0,34.0,17,0.00,,,0.00,meteohub,2013-09-21 17:12:00,
2013-09-21 11:17:00,67.3,21.0,23.95,South,180,30.0,33.0,17,0.00,,,0.00,meteohub,2013-09-21 17:17:00,
2013-09-21 11:22:00,67.6,21.2,23.95,South,180,32.0,33.0,17,0.00,,,0.00,meteohub,2013-09-21 17:22:00,
2013-09-21 11:27:00,68.2,23.0,23.95,South,180,27.0,34.0,18,0.00,,,0.00,meteohub,2013-09-21 17:27:00,
2013-09-21 11:32:00,68.7,22.1,23.95,South,180,28.0,34.0,17,0.00,,,0.00,meteohub,2013-09-21 17:32:00,
2013-09-21 11:37:00,68.5,21.9,23.94,South,180,36.0,36.0,17,0.00,,,0.00,meteohub,2013-09-21 17:37:00,
2013-09-21 11:42:00,69.4,21.2,23.94,South,180,32.0,36.0,16,0.00,,,0.00,meteohub,2013-09-21 17:42:00,
2013-09-21 11:47:00,69.6,21.4,23.94,South,180,34.0,36.0,16,0.00,,,0.00,meteohub,2013-09-21 17:47:00,
2013-09-21 11:52:00,69.8,20.1,23.95,South,180,34.0,37.0,15,0.00,,,0.00,meteohub,2013-09-21 17:52:00,
2013-09-21 11:57:00,70.7,20.8,23.94,South,180,31.0,37.0,15,0.00,,,0.00,meteohub,2013-09-21 17:57:00,
2013-09-21 12:02:00,70.9,19.2,23.94,South,180,36.0,38.0,14,0.00,,,0.00,meteohub,2013-09-21 18:02:00,
2013-09-21 12:07:00,70.9,19.2,23.93,South,180,36.0,38.0,14,0.00,,,0.00,meteohub,2013-09-21 18:07:00,
2013-09-21 12:12:00,71.1,19.4,23.95,SSW,203,33.0,38.0,14,0.00,,,0.00,meteohub,2013-09-21 18:12:00,
2013-09-21 12:17:00,71.6,19.9,23.94,South,180,36.0,36.0,14,0.00,,,0.00,meteohub,2013-09-21 18:17:00,
2013-09-21 12:22:00,71.4,19.8,23.94,South,180,30.0,36.0,14,0.00,,,0.00,meteohub,2013-09-21 18:22:00,
2013-09-21 12:27:00,71.1,19.4,23.94,South,180,30.0,36.0,14,0.00,,,0.00,meteohub,2013-09-21 18:27:00,
2013-09-21 12:32:00,71.8,18.3,23.94,South,180,34.0,37.0,13,0.00,,,0.00,meteohub,2013-09-21 18:32:00,
2013-09-21 12:37:00,71.6,18.1,23.93,South,180,34.0,37.0,13,0.00,,,0.00,meteohub,2013-09-21 18:37:00,
2013-09-21 12:42:00,72.3,16.9,23.94,South,180,30.0,37.0,12,0.00,,,0.00,meteohub,2013-09-21 18:42:00,
2013-09-21 12:47:00,72.1,18.5,23.94,SSW,203,27.0,36.0,13,0.00,,,0.00,meteohub,2013-09-21 18:47:00,
2013-09-21 12:52:00,70.9,19.2,23.94,South,180,31.0,38.0,14,0.00,,,0.00,meteohub,2013-09-21 18:52:00,
2013-09-21 12:57:00,71.4,18.0,23.94,South,180,28.0,38.0,13,0.00,,,0.00,meteohub,2013-09-21 18:57:00,
2013-09-21 13:02:00,72.0,20.1,23.94,South,180,27.0,38.0,14,0.00,,,0.00,meteohub,2013-09-21 19:02:00,
2013-09-21 13:07:00,72.0,20.1,23.94,South,180,27.0,36.0,14,0.00,,,0.00,meteohub,2013-09-21 19:07:00,
2013-09-21 13:12:00,71.6,16.3,23.94,South,180,32.0,33.0,12,0.00,,,0.00,meteohub,2013-09-21 19:12:00,
2013-09-21 13:17:00,72.1,14.7,23.94,South,180,23.0,32.0,11,0.00,,,0.00,meteohub,2013-09-21 19:17:00,
2013-09-21 13:22:00,72.3,18.7,23.94,South,180,23.0,32.0,13,0.00,,,0.00,meteohub,2013-09-21 19:22:00,
2013-09-21 13:27:00,72.5,18.9,23.94,SW,225,27.0,32.0,13,0.00,,,0.00,meteohub,2013-09-21 19:27:00,
2013-09-21 13:32:00,72.1,16.7,23.94,South,180,30.0,30.0,12,0.00,,,0.00,meteohub,2013-09-21 19:32:00,
2013-09-21 13:37:00,72.3,16.9,23.93,South,180,26.0,30.0,12,0.00,,,0.00,meteohub,2013-09-21 19:37:00,
2013-09-21 13:42:00,72.3,16.9,23.94,SW,225,24.0,33.0,12,0.00,,,0.00,meteohub,2013-09-21 19:42:00,
2013-09-21 13:47:00,73.0,15.4,23.94,South,180,25.0,33.0,11,0.00,,,0.00,meteohub,2013-09-21 19:47:00,
2013-09-21 13:52:00,72.3,14.9,23.93,SSW,203,29.0,35.0,11,0.00,,,0.00,meteohub,2013-09-21 19:52:00,
2013-09-21 13:57:00,72.1,14.7,23.94,SW,225,25.0,35.0,11,0.00,,,0.00,meteohub,2013-09-21 19:57:00,
2013-09-21 14:02:00,71.8,14.4,23.93,SW,225,17.0,34.0,11,0.00,,,0.00,meteohub,2013-09-21 20:02:00,
2013-09-21 14:07:00,71.8,14.4,23.93,SW,225,17.0,34.0,11,0.00,,,0.00,meteohub,2013-09-21 20:07:00,
2013-09-21 14:12:00,72.5,15.1,23.93,South,180,33.0,33.0,11,0.00,,,0.00,meteohub,2013-09-21 20:12:00,
2013-09-21 14:17:00,72.3,16.9,23.93,South,180,28.0,33.0,12,0.00,,,0.00,meteohub,2013-09-21 20:17:00,
2013-09-21 14:22:00,72.3,16.9,23.93,South,180,19.0,33.0,12,0.00,,,0.00,meteohub,2013-09-21 20:22:00,
2013-09-21 14:27:00,72.7,15.1,23.92,NNE,23,17.0,33.0,11,0.00,,,0.00,meteohub,2013-09-21 20:27:00,
2013-09-21 14:32:00,72.5,15.1,23.92,South,180,21.0,28.0,11,0.00,,,0.00,meteohub,2013-09-21 20:32:00,
2013-09-21 14:37:00,72.5,18.9,23.92,SW,225,18.0,27.0,13,0.00,,,0.00,meteohub,2013-09-21 20:37:00,
2013-09-21 14:42:00,72.0,16.5,23.92,SW,225,11.0,27.0,12,0.00,,,0.00,meteohub,2013-09-21 20:42:00,
2013-09-21 14:47:00,72.7,17.1,23.92,South,180,12.0,30.0,12,0.00,,,0.00,meteohub,2013-09-21 20:47:00,
2013-09-21 14:52:00,73.0,15.4,23.91,South,180,28.0,30.0,11,0.00,,,0.00,meteohub,2013-09-21 20:52:00,
2013-09-21 14:57:00,72.7,12.9,23.91,SW,225,26.0,30.0,10,0.00,,,0.00,meteohub,2013-09-21 20:57:00,
2013-09-21 15:02:00,72.3,14.9,23.91,SW,225,17.0,28.0,11,0.00,,,0.00,meteohub,2013-09-21 21:02:00,
2013-09-21 15:07:00,72.3,14.9,23.91,SW,225,17.0,28.0,11,0.00,,,0.00,meteohub,2013-09-21 21:07:00,
2013-09-21 15:12:00,73.6,15.8,23.91,South,180,22.0,29.0,11,0.00,,,0.00,meteohub,2013-09-21 21:12:00,
2013-09-21 15:17:00,73.6,73.6,23.91,South,180,15.0,29.0,0,0.00,,,0.00,meteohub,2013-09-21 21:17:00,
2013-09-21 15:22:00,72.3,12.7,23.90,SSW,203,27.0,30.0,10,0.00,,,0.00,meteohub,2013-09-21 21:22:00,
2013-09-21 15:27:00,71.4,16.2,23.90,South,180,23.0,30.0,12,0.00,,,0.00,meteohub,2013-09-21 21:27:00,
2013-09-21 15:32:00,71.8,16.5,23.91,South,180,17.0,27.0,12,0.00,,,0.00,meteohub,2013-09-21 21:32:00,
2013-09-21 15:37:00,73.6,73.6,23.91,South,180,24.0,27.0,0,0.00,,,0.00,meteohub,2013-09-21 21:37:00,
2013-09-21 15:42:00,73.8,13.8,23.91,South,180,22.0,27.0,10,0.00,,,0.00,meteohub,2013-09-21 21:42:00,
2013-09-21 15:47:00,73.0,15.4,23.90,South,180,25.0,26.0,11,0.00,,,0.00,meteohub,2013-09-21 21:47:00,
2013-09-21 15:52:00,72.9,15.3,23.90,SW,225,15.0,26.0,11,0.00,,,0.00,meteohub,2013-09-21 21:52:00,
2013-09-21 15:57:00,75.4,75.4,23.90,SW,225,15.0,26.0,0,0.00,,,0.00,meteohub,2013-09-21 21:57:00,
2013-09-21 16:02:00,75.9,75.9,23.90,SW,225,17.0,26.0,0,0.00,,,0.00,meteohub,2013-09-21 22:02:00,
2013-09-21 16:07:00,75.9,75.9,23.90,SW,225,17.0,23.0,0,0.00,,,0.00,meteohub,2013-09-21 22:07:00,
2013-09-21 16:12:00,71.6,14.4,23.90,South,180,19.0,23.0,11,0.00,,,0.00,meteohub,2013-09-21 22:12:00,
2013-09-21 16:17:00,71.8,14.4,23.90,SSW,203,16.0,23.0,11,0.00,,,0.00,meteohub,2013-09-21 22:17:00,
2013-09-21 16:22:00,72.9,15.3,23.89,South,180,18.0,23.0,11,0.00,,,0.00,meteohub,2013-09-21 22:22:00,
2013-09-21 16:27:00,73.0,73.0,23.89,SW,225,17.0,22.0,0,0.00,,,0.00,meteohub,2013-09-21 22:27:00,
2013-09-21 16:32:00,72.3,72.3,23.90,West,270,21.0,26.0,0,0.00,,,0.00,meteohub,2013-09-21 22:32:00,
2013-09-21 16:37:00,71.8,14.4,23.90,West,270,15.0,26.0,11,0.00,,,0.00,meteohub,2013-09-21 22:37:00,
2013-09-21 16:42:00,72.0,14.5,23.90,WSW,248,19.0,22.0,11,0.00,,,0.00,meteohub,2013-09-21 22:42:00,
2013-09-21 16:47:00,71.8,12.2,23.89,West,270,18.0,21.0,10,0.00,,,0.00,meteohub,2013-09-21 22:47:00,
2013-09-21 16:52:00,71.4,14.2,23.89,NW,315,15.0,20.0,11,0.00,,,0.00,meteohub,2013-09-21 22:52:00,
2013-09-21 16:57:00,70.9,17.6,23.89,SW,225,10.0,20.0,13,0.00,,,0.00,meteohub,2013-09-21 22:57:00,
2013-09-21 17:02:00,70.7,13.6,23.89,SW,225,17.0,18.0,11,0.00,,,0.00,meteohub,2013-09-21 23:02:00,
2013-09-21 17:07:00,70.7,13.6,23.89,SW,225,17.0,17.0,11,0.00,,,0.00,meteohub,2013-09-21 23:07:00,
2013-09-21 17:12:00,70.2,17.1,23.88,SW,225,20.0,20.0,13,0.00,,,0.00,meteohub,2013-09-21 23:12:00,
2013-09-21 17:17:00,70.0,13.1,23.89,SW,225,21.0,25.0,11,0.00,,,0.00,meteohub,2013-09-21 23:17:00,
2013-09-21 17:22:00,70.2,15.1,23.89,SW,225,21.0,25.0,12,0.00,,,0.00,meteohub,2013-09-21 23:22:00,
2013-09-21 17:27:00,70.0,16.9,23.89,SW,225,15.0,25.0,13,0.00,,,0.00,meteohub,2013-09-21 23:27:00,
2013-09-21 17:32:00,69.8,14.9,23.89,SW,225,16.0,22.0,12,0.00,,,0.00,meteohub,2013-09-21 23:32:00,
2013-09-21 17:37:00,69.8,18.5,23.88,SW,225,11.0,22.0,14,0.00,,,0.00,meteohub,2013-09-21 23:37:00,
2013-09-21 17:42:00,69.8,20.1,23.89,SW,225,13.0,17.0,15,0.00,,,0.00,meteohub,2013-09-21 23:42:00,
2013-09-21 17:47:00,69.4,21.2,23.89,West,270,8.0,17.0,16,0.00,,,0.00,meteohub,2013-09-21 23:47:00,
2013-09-21 17:52:00,69.3,21.2,23.89,West,270,4.0,13.0,16,0.00,,,0.00,meteohub,2013-09-21 23:52:00,
2013-09-21 17:57:00,68.9,20.8,23.89,West,270,4.0,13.0,16,0.00,,,0.00,meteohub,2013-09-21 23:57:00,
2013-09-21 18:02:00,68.7,20.7,23.89,West,270,5.0,8.0,16,0.00,,,0.00,meteohub,2013-09-22 00:02:00,
2013-09-21 18:07:00,68.7,20.7,23.89,West,270,5.0,6.0,16,0.00,,,0.00,meteohub,2013-09-22 00:07:00,
2013-09-21 18:12:00,68.5,17.4,23.89,NW,315,4.0,6.0,14,0.00,,,0.00,meteohub,2013-09-22 00:12:00,
2013-09-21 18:17:00,68.7,17.6,23.89,NW,315,3.0,6.0,14,0.00,,,0.00,meteohub,2013-09-22 00:17:00,
2013-09-21 18:22:00,68.7,17.6,23.89,NW,315,2.0,6.0,14,0.00,,,0.00,meteohub,2013-09-22 00:22:00,
2013-09-21 18:27:00,68.5,17.4,23.89,North,0,2.0,5.0,14,0.00,,,0.00,meteohub,2013-09-22 00:27:00,
2013-09-21 18:32:00,68.4,17.2,23.89,North,0,2.0,4.0,14,0.00,,,0.00,meteohub,2013-09-22 00:32:00,
2013-09-21 18:37:00,68.4,17.2,23.89,North,0,4.0,4.0,14,0.00,,,0.00,meteohub,2013-09-22 00:37:00,
2013-09-21 18:42:00,68.4,17.2,23.89,North,0,5.0,5.0,14,0.00,,,0.00,meteohub,2013-09-22 00:42:00,
2013-09-21 18:47:00,67.1,16.3,23.89,North,0,23.0,23.0,14,0.00,,,0.00,meteohub,2013-09-22 00:47:00,
2013-09-21 18:52:00,63.7,20.7,23.88,North,0,26.0,26.0,19,0.00,,,0.00,meteohub,2013-09-22 00:52:00,
2013-09-21 18:57:00,62.8,21.0,23.88,North,0,24.0,30.0,20,0.00,,,0.00,meteohub,2013-09-22 00:57:00,
2013-09-21 19:02:00,62.8,19.9,23.88,North,0,25.0,30.0,19,0.00,,,0.00,meteohub,2013-09-22 01:02:00,
2013-09-21 19:07:00,62.8,19.9,23.89,North,0,25.0,30.0,19,0.00,,,0.00,meteohub,2013-09-22 01:07:00,
2013-09-21 19:12:00,62.2,20.7,23.89,North,0,23.0,27.0,20,0.00,,,0.00,meteohub,2013-09-22 01:12:00,
2013-09-21 19:17:00,62.1,20.5,23.89,North,0,25.0,25.0,20,0.00,,,0.00,meteohub,2013-09-22 01:17:00,
2013-09-21 19:22:00,62.1,20.5,23.89,North,0,26.0,26.0,20,0.00,,,0.00,meteohub,2013-09-22 01:22:00,
2013-09-21 19:27:00,61.9,20.3,23.89,North,0,24.0,27.0,20,0.00,,,0.00,meteohub,2013-09-22 01:27:00,
2013-09-21 19:32:00,61.7,21.4,23.90,North,0,23.0,27.0,21,0.00,,,0.00,meteohub,2013-09-22 01:32:00,
2013-09-21 19:37:00,61.7,20.1,23.90,North,0,23.0,27.0,20,0.00,,,0.00,meteohub,2013-09-22 01:37:00,
2013-09-21 19:42:00,61.5,21.2,23.90,North,0,23.0,26.0,21,0.00,,,0.00,meteohub,2013-09-22 01:42:00,
2013-09-21 19:47:00,61.2,20.8,23.90,North,0,23.0,27.0,21,0.00,,,0.00,meteohub,2013-09-22 01:47:00,
2013-09-21 19:52:00,61.0,21.9,23.90,North,0,20.0,27.0,22,0.00,,,0.00,meteohub,2013-09-22 01:52:00,
2013-09-21 19:57:00,60.8,21.7,23.91,North,0,17.0,23.0,22,0.00,,,0.00,meteohub,2013-09-22 01:57:00,
2013-09-21 20:07:00,60.8,21.7,23.91,North,0,19.0,21.0,22,0.00,,,0.00,meteohub,2013-09-22 02:07:00,
2013-09-21 20:12:00,60.4,22.5,23.91,North,0,19.0,21.0,23,0.00,,,0.00,meteohub,2013-09-22 02:12:00,
2013-09-21 20:17:00,60.1,23.2,23.91,North,0,19.0,21.0,24,0.00,,,0.00,meteohub,2013-09-22 02:17:00,
2013-09-21 20:22:00,60.4,21.4,23.91,North,0,21.0,21.0,22,0.00,,,0.00,meteohub,2013-09-22 02:22:00,
2013-09-21 20:27:00,60.3,21.2,23.91,North,0,18.0,25.0,22,0.00,,,0.00,meteohub,2013-09-22 02:27:00,
2013-09-21 20:32:00,59.9,21.9,23.91,North,0,17.0,25.0,23,0.00,,,0.00,meteohub,2013-09-22 02:32:00,
2013-09-21 20:37:00,59.9,21.9,23.91,North,0,17.0,25.0,23,0.00,,,0.00,meteohub,2013-09-22 02:37:00,
2013-09-21 20:42:00,60.1,21.0,23.91,NE,45,20.0,20.0,22,0.00,,,0.00,meteohub,2013-09-22 02:42:00,
2013-09-21 20:47:00,59.9,21.9,23.91,North,0,18.0,21.0,23,0.00,,,0.00,meteohub,2013-09-22 02:47:00,
2013-09-21 20:52:00,59.5,21.7,23.92,North,0,16.0,21.0,23,0.00,,,0.00,meteohub,2013-09-22 02:52:00,
2013-09-21 20:57:00,59.7,21.9,23.92,North,0,16.0,21.0,23,0.00,,,0.00,meteohub,2013-09-22 02:57:00,
2013-09-21 21:02:00,59.5,21.7,23.92,North,0,15.0,18.0,23,0.00,,,0.00,meteohub,2013-09-22 03:02:00,
2013-09-21 21:07:00,59.5,21.7,23.92,North,0,15.0,17.0,23,0.00,,,0.00,meteohub,2013-09-22 03:07:00,
2013-09-21 21:12:00,59.5,21.7,23.92,North,0,15.0,16.0,23,0.00,,,0.00,meteohub,2013-09-22 03:12:00,
2013-09-21 21:17:00,59.5,21.7,23.92,NE,45,15.0,16.0,23,0.00,,,0.00,meteohub,2013-09-22 03:17:00,
2013-09-21 21:22:00,59.4,21.6,23.92,North,0,13.0,16.0,23,0.00,,,0.00,meteohub,2013-09-22 03:22:00,
2013-09-21 21:27:00,59.0,22.3,23.93,NE,45,13.0,15.0,24,0.00,,,0.00,meteohub,2013-09-22 03:27:00,
2013-09-21 21:32:00,59.2,22.5,23.92,NE,45,11.0,15.0,24,0.00,,,0.00,meteohub,2013-09-22 03:32:00,
2013-09-21 21:37:00,58.6,23.9,23.92,NE,45,9.0,15.0,26,0.00,,,0.00,meteohub,2013-09-22 03:37:00,
2013-09-21 21:42:00,58.6,25.7,23.93,NE,45,12.0,13.0,28,0.00,,,0.00,meteohub,2013-09-22 03:42:00,
2013-09-21 21:47:00,58.6,26.4,23.93,NE,45,10.0,12.0,29,0.00,,,0.00,meteohub,2013-09-22 03:47:00,
2013-09-21 21:52:00,58.5,26.2,23.93,NE,45,8.0,12.0,29,0.00,,,0.00,meteohub,2013-09-22 03:52:00,
2013-09-21 21:57:00,58.5,25.5,23.93,NNW,338,8.0,12.0,28,0.00,,,0.00,meteohub,2013-09-22 03:57:00,
2013-09-21 22:02:00,58.6,25.7,23.93,NE,45,8.0,11.0,28,0.00,,,0.00,meteohub,2013-09-22 04:02:00,
2013-09-21 22:07:00,58.6,25.7,23.93,NE,45,8.0,9.0,28,0.00,,,0.00,meteohub,2013-09-22 04:07:00,
2013-09-21 22:12:00,58.6,25.7,23.92,NE,45,13.0,13.0,28,0.00,,,0.00,meteohub,2013-09-22 04:12:00,
2013-09-21 22:17:00,58.8,25.0,23.93,NE,45,15.0,15.0,27,0.00,,,0.00,meteohub,2013-09-22 04:17:00,
2013-09-21 22:22:00,58.6,26.4,23.93,NE,45,13.0,15.0,29,0.00,,,0.00,meteohub,2013-09-22 04:22:00,
2013-09-21 22:27:00,58.3,25.3,23.92,NE,45,13.0,17.0,28,0.00,,,0.00,meteohub,2013-09-22 04:27:00,
2013-09-21 22:32:00,57.7,25.7,23.93,NE,45,9.0,17.0,29,0.00,,,0.00,meteohub,2013-09-22 04:32:00,
2013-09-21 22:37:00,57.7,25.7,23.92,North,0,11.0,17.0,29,0.00,,,0.00,meteohub,2013-09-22 04:37:00,
2013-09-21 22:42:00,57.6,25.5,23.93,NE,45,15.0,16.0,29,0.00,,,0.00,meteohub,2013-09-22 04:42:00,
2013-09-21 22:47:00,57.2,26.1,23.92,NE,45,11.0,15.0,30,0.00,,,0.00,meteohub,2013-09-22 04:47:00,
2013-09-21 22:52:00,57.2,26.1,23.92,NE,45,11.0,15.0,30,0.00,,,0.00,meteohub,2013-09-22 04:52:00,
2013-09-21 22:57:00,57.6,25.5,23.92,NE,45,10.0,15.0,29,0.00,,,0.00,meteohub,2013-09-22 04:57:00,
2013-09-21 23:02:00,57.7,25.7,23.92,NE,45,11.0,13.0,29,0.00,,,0.00,meteohub,2013-09-22 05:02:00,
2013-09-21 23:07:00,57.7,25.7,23.92,NE,45,11.0,13.0,29,0.00,,,0.00,meteohub,2013-09-22 05:07:00,
2013-09-21 23:12:00,57.4,26.2,23.92,NE,45,14.0,14.0,30,0.00,,,0.00,meteohub,2013-09-22 05:12:00,
2013-09-21 23:17:00,57.0,26.6,23.92,North,0,9.0,16.0,31,0.00,,,0.00,meteohub,2013-09-22 05:17:00,
2013-09-21 23:22:00,56.7,27.1,23.92,NE,45,14.0,16.0,32,0.00,,,0.00,meteohub,2013-09-22 05:22:00,
2013-09-21 23:27:00,56.5,27.0,23.92,North,0,14.0,16.0,32,0.00,,,0.00,meteohub,2013-09-22 05:27:00,
2013-09-21 23:37:00,55.6,27.7,23.92,NE,45,9.0,15.0,34,0.00,,,0.00,meteohub,2013-09-22 05:37:00,
2013-09-21 23:42:00,55.6,27.0,23.91,NE,45,14.0,15.0,33,0.00,,,0.00,meteohub,2013-09-22 05:42:00,
2013-09-21 23:47:00,55.2,27.3,23.91,North,0,11.0,15.0,34,0.00,,,0.00,meteohub,2013-09-22 05:47:00,
2013-09-21 23:52:00,55.4,27.5,23.92,North,0,12.0,14.0,34,0.00,,,0.00,meteohub,2013-09-22 05:52:00,
2013-09-21 23:57:00,55.9,26.4,23.91,NNE,23,16.0,16.0,32,0.00,,,0.00,meteohub,2013-09-22 05:57:00,